TimeEDT,TemperatureF,Dew PointF,Humidity,Sea Level PressureIn,VisibilityMPH,Wind Direction,Wind SpeedMPH,Gust SpeedMPH,PrecipitationIn,Events,Conditions,WindDirDegrees,DateUTC
12:17 AM,39.2,37.4,93,29.80,2.5,NE,18.4,-,N/A,,Overcast,40,2013-04-13 04:17:00
12:29 AM,39.2,37.4,93,29.80,9.0,NNE,16.1,-,N/A,,Overcast,30,2013-04-13 04:29:00
12:54 AM,39.0,36.0,89,29.80,7.0,NNE,17.3,25.3,N/A,,Overcast,30,2013-04-13 04:54:00
1:10 AM,39.2,37.4,93,29.79,6.0,NNE,16.1,-,N/A,,Overcast,30,2013-04-13 05:10:00
1:51 AM,39.2,35.6,87,29.79,8.0,NNE,18.4,-,N/A,,Overcast,20,2013-04-13 05:51:00
1:54 AM,39.0,36.0,89,29.79,7.0,NNE,18.4,-,N/A,,Overcast,20,2013-04-13 05:54:00
2:11 AM,37.4,35.6,93,29.79,10.0,NNE,17.3,25.3,0.00,,Overcast,20,2013-04-13 06:11:00
2:54 AM,37.9,35.1,89,29.81,8.0,North,15.0,-,0.00,,Overcast,10,2013-04-13 06:54:00
3:43 AM,37.4,35.6,93,29.76,7.0,NE,19.6,-,0.01,Rain,Light Rain,40,2013-04-13 07:43:00
3:54 AM,37.9,35.1,89,29.76,8.0,NNE,21.9,27.6,0.02,Rain,Rain,30,2013-04-13 07:54:00
4:54 AM,37.9,35.1,89,29.78,10.0,NNE,19.6,-,0.00,,Overcast,30,2013-04-13 08:54:00
5:51 AM,37.4,33.8,87,29.79,10.0,North,13.8,-,N/A,,Overcast,360,2013-04-13 09:51:00
5:54 AM,37.0,34.0,89,29.80,10.0,North,13.8,-,N/A,,Overcast,360,2013-04-13 09:54:00
6:54 AM,36.0,34.0,93,29.83,2.0,NNW,10.4,-,0.00,,Overcast,330,2013-04-13 10:54:00
7:54 AM,37.0,34.0,89,29.84,2.0,NNW,9.2,-,N/A,,Overcast,340,2013-04-13 11:54:00
8:27 AM,37.4,33.8,87,29.85,10.0,NNW,10.4,-,N/A,,Overcast,330,2013-04-13 12:27:00
8:54 AM,37.0,33.1,86,29.86,10.0,North,9.2,-,N/A,,Overcast,350,2013-04-13 12:54:00
9:54 AM,37.9,33.1,83,29.87,10.0,North,6.9,-,N/A,,Overcast,360,2013-04-13 13:54:00
10:54 AM,39.0,33.1,79,29.87,10.0,Variable,4.6,-,N/A,,Overcast,0,2013-04-13 14:54:00
11:30 AM,41.0,33.8,76,29.87,10.0,West,4.6,-,N/A,,Overcast,280,2013-04-13 15:30:00
11:54 AM,42.1,34.0,73,29.87,10.0,West,5.8,-,N/A,,Overcast,260,2013-04-13 15:54:00
12:54 PM,48.0,36.0,63,29.84,10.0,NW,4.6,-,N/A,,Mostly Cloudy,320,2013-04-13 16:54:00
1:27 PM,48.2,35.6,62,29.84,10.0,WNW,11.5,17.3,N/A,,Overcast,300,2013-04-13 17:27:00
1:54 PM,51.1,35.1,54,29.83,10.0,Calm,Calm,-,N/A,,Mostly Cloudy,0,2013-04-13 17:54:00
2:54 PM,46.0,36.0,68,29.83,10.0,East,9.2,-,N/A,,Mostly Cloudy,100,2013-04-13 18:54:00
3:54 PM,44.1,37.0,76,29.83,10.0,ESE,9.2,-,N/A,,Overcast,110,2013-04-13 19:54:00
4:54 PM,43.0,37.0,80,29.85,10.0,ESE,11.5,-,N/A,,Overcast,110,2013-04-13 20:54:00
5:54 PM,43.0,37.0,80,29.87,10.0,ESE,10.4,-,N/A,,Mostly Cloudy,110,2013-04-13 21:54:00
6:54 PM,43.0,37.0,80,29.89,10.0,East,5.8,-,N/A,,Mostly Cloudy,100,2013-04-13 22:54:00
7:54 PM,44.1,37.9,79,29.89,10.0,ESE,5.8,-,N/A,,Mostly Cloudy,110,2013-04-13 23:54:00
8:54 PM,45.0,39.0,80,29.92,10.0,SSE,5.8,-,N/A,,Mostly Cloudy,160,2013-04-14 00:54:00
9:54 PM,45.0,39.9,82,29.92,10.0,SSE,4.6,-,N/A,,Overcast,150,2013-04-14 01:54:00
10:54 PM,45.0,39.0,80,29.93,10.0,SSE,5.8,-,N/A,,Overcast,160,2013-04-14 02:54:00
11:54 PM,46.0,39.0,76,29.94,10.0,Calm,Calm,-,N/A,,Overcast,0,2013-04-14 03:54:00